Location: ????? ???????
(25.7275°N, 32.5929°E)
Time: 11:53:32
(UTC+00:00)

GP-B - Pass Details

Date: 02 March 2021
Orbit: 631 x 635 km, 89.8° (Epoch: 16 April)

Event Time Altitude Azimuth Distance (km) Brightness Sun altitude
Rises 17:16:51 0° 180° (S) 2,911 6.5 -19.9°
Reaches altitude 10° 17:19:04 10° 181° (S) 2,007 5.7 -20.4°
Maximum altitude 17:23:28 76° 267° (W) 654 3.2 -21.4°
Drops below altitude 10° 17:27:54 10° 354° (N) 2,019 5.8 -22.4°
Sets 17:30:08 0° 356° (N) 2,930 6.6 -22.9°
